Location: Chervonnoye
(48.6000°N, 34.4000°E)
Time: 06:24:34
(UTC+00:00)

NOSS 0 Rocket - Pass Details

Date: 23 November 2020
Orbit: 937 x 953 km, 70.0° (Epoch: 18 January)

Event Time Altitude Azimuth Distance (km) Brightness Sun altitude
Rises 15:26:08 0° 207° (SSW) 3,615 7.6 -14.8°
Reaches altitude 10° 15:28:39 10° 207° (SSW) 2,673 6.9 -15.2°
Maximum altitude 15:34:53 90° 126° (SE) 959 3.9 -16.2°
Enters shadow 15:40:42 12° 30° (NNE) 2,518 5.8 -17.1°
